[[{"header":{"parameterUnit":"m.s-1","parameterCategory":1,"la1":30.2992,"la2":30.254,"lo1":-89.0895,"lo2":-89.0443,"dy":0.0025,"dx":0.0025,"nx":19,"ny":19,"refTime":"2026-03-27T09:00:00:Z","depth":0,"parameterNumber":2,"parameterNumberName":"U-component_of_WINDS"},"data":[0,0,0,0.7151,0.7151,0.7135,0.7135,0.71,0.71,0,0,0,0,0,0,0,0,0,0,0,0.7148,0.7147,0.7152,0.7151,0.7135,0.7135,0.7101,0.71,0,0,0,0,0,0,0,0,0,0,0,0.7148,0.7148,0.7147,0.7151,0.7135,0.7135,0.7101,0.7118,0,0,0,0,0,0,0,0,0,0,0.7136,0.7124,0.7148,0.7147,0.7151,0.7135,0.7135,0.7119,0.7117,0.7102,0,0.7087,0,0.7093,0.7097,0.7097,0,0,0,0.7157,0.7126,0.7129,0.7147,0.715,0.7135,0.7144,0.7118,0.7115,0.7099,0.7086,0.7086,0.7092,0.7097,0.7096,0.6994,0.6993,0,0,0.7158,0.714,0.7131,0.7127,0.7129,0.7144,0.7143,0.7116,0.7101,0.7086,0.7085,0.7092,0.7096,0.7096,0.6995,0.6994,0,0,0,0.7156,0.7141,0.7145,0.7128,0.7127,0.7144,0.7142,0.7103,0.7106,0.7085,0.7091,0.7096,0.7095,0.6996,0.6994,0.6941,0,0,0,0.7157,0.714,0.7145,0.7134,0.7127,0.7114,0.7129,0.7107,0.7105,0.7092,0.7096,0.7095,0.6996,0.6995,0.6945,0.6919,0,0,0,0.7152,0.7139,0.7134,0.7133,0.7126,0.7115,0.7117,0.7107,0.7109,0.7097,0.7095,0.6997,0.6995,0.6948,0.6924,0.6888,0,0,0,0.7141,0.7086,0.7133,0.7074,0.7126,0.7082,0.7117,0.7085,0.7069,0.7096,0.6996,0.6995,0.6949,0.6927,0.6891,0.6856,0.6839,0,0,0.7062,0.7076,0.7043,0.7085,0.7029,0.7086,0.7022,0.7023,0.7037,0.7007,0.7005,0.6944,0.6924,0.6889,0.6751,0.6737,0,0,0,0.7012,0.6988,0.6977,0.6961,0.6961,0.6959,0.6972,0.6972,0.6948,0.7018,0.6921,0.691,0.689,0.6874,0.6863,0.6847,0.6986,0.6986,0.6986,0.6875,0.6897,0.6845,0.6865,0.6849,0.6864,0.6853,0.6857,0.6882,0.6859,0.6851,0.6764,0.6744,0.6736,0.672,0.6833,0.6833,0.6833,0.6832,0.6762,0.6732,0.677,0.6732,0.6757,0.6725,0.6737,0.6757,0.6732,0.6772,0.6755,0.6798,0.6721,0.6708,0.6829,0.6829,0.683,0.683,0.683,0.6675,0.6665,0.6668,0.6649,0.6631,0.6654,0.6628,0.6651,0.6671,0.6655,0.665,0.6651,0.6655,0.6651,0.665,0.665,0.665,0.665,0.665,0.6585,0.6589,0.6566,0.6562,0.6556,0.6551,0.6566,0.656,0.656,0.6578,0.6578,0.6607,0.6709,0.6735,0.6645,0.6646,0.6646,0.6647,0.6647,0.6463,0.6495,0.6458,0.6452,0.6451,0.6433,0.6463,0.645,0.6448,0.6435,0.6468,0.6539,0.6555,0.6564,0.6585,0.6463,0.6463,0.6463,0.6463,0.6391,0.6402,0.637,0.6359,0.6351,0.6375,0.6333,0.6345,0.6361,0.6362,0.6383,0.6413,0.6421,0.6432,0.6444,0.6464,0.6314,0.6314,0.6313,0.6319,0.633,0.629,0.6308,0.6309,0.631,0.6272,0.6258,0.6283,0.6308,0.6363,0.637,0.6419,0.6433,0.6459,0.6477,0.6515,0,0]},{"header":{"parameterUnit":"m.s-1","parameterCategory":1,"la1":30.2992,"la2":30.254,"lo1":-89.0895,"lo2":-89.0443,"dy":0.0025,"dx":0.0025,"nx":19,"ny":19,"refTime":"2026-03-27T09:00:00:Z","depth":0,"parameterNumber":3,"parameterNumberName":"V-component_of_WINDS"},"data":[0,0,0,-0.4504,-0.4506,-0.4585,-0.4585,-0.4684,-0.4685,0,0,0,0,0,0,0,0,0,0,0,-0.4479,-0.448,-0.4504,-0.4506,-0.4585,-0.4585,-0.4684,-0.4685,0,0,0,0,0,0,0,0,0,0,0,-0.4479,-0.448,-0.448,-0.4506,-0.4585,-0.4585,-0.4684,-0.4625,0,0,0,0,0,0,0,0,0,0,-0.4549,-0.4524,-0.448,-0.448,-0.4507,-0.4585,-0.4585,-0.4622,-0.4629,-0.4648,0,-0.4663,0,-0.4676,-0.4692,-0.4692,0,0,0,-0.4508,-0.4519,-0.4541,-0.4481,-0.4508,-0.4585,-0.455,-0.4626,-0.4633,-0.4656,-0.4665,-0.4668,-0.4677,-0.4692,-0.4693,-0.4794,-0.4795,0,0,-0.4503,-0.4493,-0.4536,-0.4546,-0.4533,-0.4547,-0.4552,-0.4631,-0.4639,-0.4665,-0.4671,-0.4679,-0.4693,-0.4694,-0.4794,-0.4794,0,0,0,-0.449,-0.449,-0.451,-0.4542,-0.4556,-0.4549,-0.4555,-0.4636,-0.4644,-0.4672,-0.468,-0.4693,-0.4695,-0.4793,-0.4794,-0.4804,0,0,0,-0.4487,-0.4482,-0.4508,-0.4503,-0.4555,-0.4597,-0.4559,-0.4638,-0.4647,-0.468,-0.4694,-0.4696,-0.4793,-0.4794,-0.4803,-0.4812,0,0,0,-0.4475,-0.448,-0.4491,-0.4502,-0.4536,-0.4596,-0.4608,-0.464,-0.4652,-0.4692,-0.4696,-0.4793,-0.4794,-0.4802,-0.481,-0.4836,0,0,0,-0.4459,-0.4499,-0.4491,-0.454,-0.4535,-0.4601,-0.4608,-0.4658,-0.4693,-0.4694,-0.4793,-0.4794,-0.4802,-0.4809,-0.4835,-0.4857,-0.4865,0,0,-0.4504,-0.4504,-0.4534,-0.4529,-0.4594,-0.459,-0.4657,-0.4699,-0.4713,-0.4766,-0.4769,-0.4804,-0.481,-0.4836,-0.491,-0.4917,0,0,0,-0.4545,-0.4566,-0.4585,-0.4618,-0.4651,-0.468,-0.4713,-0.4728,-0.4774,-0.4738,-0.482,-0.4824,-0.4839,-0.4851,-0.4856,-0.4871,-0.4798,-0.4798,-0.4798,-0.4596,-0.461,-0.466,-0.4684,-0.4715,-0.4748,-0.4775,-0.4802,-0.4808,-0.4827,-0.4844,-0.4887,-0.49,-0.4904,-0.4919,-0.4855,-0.4855,-0.4855,-0.4855,-0.4665,-0.4698,-0.4703,-0.4754,-0.4768,-0.4811,-0.4844,-0.4847,-0.4889,-0.4876,-0.489,-0.4876,-0.491,-0.4924,-0.4856,-0.4856,-0.4856,-0.4856,-0.4856,-0.4701,-0.472,-0.4737,-0.4785,-0.4821,-0.4844,-0.4884,-0.4896,-0.4908,-0.4922,-0.4941,-0.4941,-0.4944,-0.493,-0.493,-0.493,-0.493,-0.493,-0.493,-0.4733,-0.4752,-0.4784,-0.4822,-0.4844,-0.4875,-0.4908,-0.4931,-0.4959,-0.4965,-0.4965,-0.4969,-0.491,-0.4896,-0.4933,-0.4932,-0.4932,-0.4932,-0.4932,-0.4801,-0.4787,-0.4837,-0.4859,-0.4904,-0.4939,-0.4953,-0.4998,-0.5018,-0.5038,-0.5039,-0.4992,-0.4994,-0.499,-0.4978,-0.5034,-0.5034,-0.5034,-0.5034,-0.4833,-0.4834,-0.4888,-0.4922,-0.4958,-0.4975,-0.5032,-0.5058,-0.5082,-0.5096,-0.5089,-0.5074,-0.5069,-0.5074,-0.5068,-0.5057,-0.5132,-0.5133,-0.5133,-0.4876,-0.4881,-0.4927,-0.495,-0.4985,-0.5016,-0.507,-0.511,-0.5135,-0.5137,-0.5107,-0.5103,-0.5079,-0.507,-0.5073,-0.5064,-0.5044,0,0]}]]